Le nostre stazioni meteo in Italia

Pubblicità
Il mio iltempo24.it
Bournemouth Airport, Gran Bretagna (3862): Temperatura & dewpoint: 21.02.2017 22:00:00 - 27.02.2017 22:00:00 (GMT)Bournemouth Airport, Gran Bretagna (3862): Temperatura -20cm & Temperatura -100cm: 21.02.2017 22:00:00 - 27.02.2017 22:00:00 (GMT)Bournemouth Airport, Gran Bretagna (3862): velocità del vento & gusts: 21.02.2017 22:00:00 - 27.02.2017 22:00:00 (GMT)Bournemouth Airport, Gran Bretagna (3862): direzione del vento: 21.02.2017 22:00:00 - 27.02.2017 22:00:00 (GMT)Bournemouth Airport, Gran Bretagna (3862): reduced air pressure: 21.02.2017 22:00:00 - 27.02.2017 22:00:00 (GMT)Bournemouth Airport, Gran Bretagna (3862): visibility: 21.02.2017 22:00:00 - 27.02.2017 22:00:00 (GMT)Bournemouth Airport, Gran Bretagna (3862): ore di luce: 21.02.2017 22:00:00 - 27.02.2017 22:00:00 (GMT)Bournemouth Airport, Gran Bretagna (3862): precipitazioni: 21.02.2017 22:00:00 - 27.02.2017 22:00:00 (GMT)
Data & Tempo tt [°C] td [°C] tt -20cm [°C] tt -100cm [°C] ff [km/h] ff [kn] fx [km/h] fx [kn] dd ppp [hPa] vv [km] sd [min] rr [mm]
27.02.2017 22:00:00 2,7 1,7 - - 8 4 - - SO 985,8 30 0 0,0
27.02.2017 21:00:00 2,1 1,0 - - 9 5 - - O 986,3 10 0 0,0
27.02.2017 20:00:00 3,9 1,9 - - 21 11 - - O 986,3 10 0 0,2
27.02.2017 19:00:00 4,9 2,6 - - 15 8 - - OSO 986,1 10 0 0,0
27.02.2017 18:00:00 5,6 2,3 - - 21 11 - - OSO 985,8 30 0 0,4
27.02.2017 17:00:00 6,7 2,2 - - 18 10 - - OSO 985,9 10 24 0,0
27.02.2017 16:00:00 7,3 2,9 - - 29 16 52 28 OSO 985,8 10 48 0,0
27.02.2017 15:00:00 6,9 4,1 - - 31 17 57 31 OSO 985,8 10 12 0,2
27.02.2017 14:00:00 8,4 4,2 - - 37 20 57 31 OSO 986,0 30 6 0,0
27.02.2017 13:00:00 7,8 5,2 - - 24 13 - - SO 986,0 24 0 0,0
27.02.2017 12:00:00 6,8 5,3 - - 24 13 - - SSO 987,1 10 0 0,4
27.02.2017 11:00:00 7,9 5,8 - - 24 13 - - SSO 988,0 22 0 0,2
27.02.2017 10:00:00 7,9 5,9 - - 21 11 - - SSO 989,5 10 0 0,0
27.02.2017 09:00:00 7,4 6,1 8,7 8,0 16 9 - - SSO 990,6 10 0 0,8
27.02.2017 08:00:00 7,2 5,3 - - 29 16 48 26 OSO 992,4 8 0 0,6
27.02.2017 07:00:00 8,3 6,5 - - 18 10 - - SSO 993,1 10 0 0,6
27.02.2017 06:00:00 7,6 6,4 - - 28 15 - - SO 994,5 5 0 1,0
27.02.2017 05:00:00 8,5 7,3 - - 24 13 - - SO 995,6 6 0 0,0
27.02.2017 04:00:00 8,4 7,6 - - 16 9 - - SSO 996,7 17 0 0,0
27.02.2017 03:00:00 8,5 7,5 - - 15 8 - - SSO 998,0 20 0 0,0
27.02.2017 02:00:00 8,1 7,3 - - 21 11 - - SSO 999,2 13 0 2,6
27.02.2017 01:00:00 8,5 7,7 - - 16 9 - - SSO 999,7 6 0 3,6
27.02.2017 00:00:00 8,7 7,7 - - 16 9 - - SO 1000,8 15 - 0,8
26.02.2017 23:00:00 8,4 7,7 - - 15 8 - - SO 1001,8 10 0 0,6
26.02.2017 22:00:00 8,5 8,0 - - 18 10 - - O 1002,5 4,0 0 0,6
26.02.2017 21:00:00 9,9 9,3 - - 29 16 54 29 SO 1002,6 5 0 0,6
26.02.2017 20:00:00 10,0 9,3 - - 35 19 61 33 SO 1003,3 6 0 0,4
26.02.2017 19:00:00 10,0 9,1 - - 35 19 65 35 SO 1003,8 7 0 0,2
26.02.2017 18:00:00 9,9 8,7 - - 34 18 55 30 SO 1004,2 4,0 0 0,0
26.02.2017 17:00:00 10,3 8,0 - - 31 17 55 30 SSO 1004,5 10 0 0,0
26.02.2017 16:00:00 10,4 8,3 - - 31 17 59 32 SO 1005,4 18 0 0,0
26.02.2017 15:00:00 10,4 7,9 - - 28 15 57 31 SO 1006,1 10 0 0,0
26.02.2017 14:00:00 10,7 8,0 - - 35 19 55 30 SO 1007,1 20 0 0,0
26.02.2017 13:00:00 10,3 8,0 - - 24 13 52 28 SO 1007,9 10 0 0,0
26.02.2017 12:00:00 10,1 8,1 - - 22 12 48 26 SO 1008,7 10 0 0,0
26.02.2017 11:00:00 9,5 8,5 - - 22 12 - - SO 1009,2 10 0 0,0
26.02.2017 10:00:00 9,8 8,0 - - 22 12 - - OSO 1008,9 7 0 0,0
26.02.2017 09:00:00 10,2 7,4 8,4 7,9 13 7 - - OSO 1008,8 10 0 0,0
26.02.2017 08:00:00 10,0 9,0 - - 15 8 - - OSO 1008,8 10 0 0,0
26.02.2017 07:00:00 10,2 9,8 - - 15 8 - - OSO 1008,6 9 0 0,0
26.02.2017 06:00:00 10,3 9,8 - - 16 9 - - OSO 1008,7 19 0 0,0
26.02.2017 05:00:00 10,1 9,8 - - 16 9 - - OSO 1008,5 8 0 0,0
26.02.2017 04:00:00 10,2 9,7 - - 16 9 - - OSO 1008,6 20 0 0,0
26.02.2017 03:00:00 10,0 9,6 - - 22 12 - - SO 1008,7 19 0 0,4
26.02.2017 02:00:00 10,0 9,6 - - 22 12 48 26 SO 1009,3 3,5 0 0,2
26.02.2017 01:00:00 9,9 9,3 - - 28 15 46 25 SO 1009,6 17 0 0,2
26.02.2017 00:00:00 9,7 9,1 - - 28 15 48 26 SO 1009,9 5 - 0,4
25.02.2017 23:00:00 9,4 8,8 - - 26 14 46 25 SO 1010,1 10 0 0,8
25.02.2017 22:00:00 9,2 8,5 - - 26 14 46 25 SO 1010,8 6 0 0,8
25.02.2017 21:00:00 9,4 8,1 - - 28 15 46 25 SO 1011,2 4,6 0 0,0
25.02.2017 20:00:00 9,4 7,9 - - 26 14 - - SO 1011,4 10 0 0,4
25.02.2017 19:00:00 9,9 7,2 - - 24 13 46 25 SO 1011,5 10 0 0,0
25.02.2017 18:00:00 9,9 7,0 - - 28 15 50 27 SO 1012,0 10 0 0,0
25.02.2017 17:00:00 9,5 7,6 - - 28 15 54 29 SO 1012,0 10 0 0,2
25.02.2017 16:00:00 10,0 7,1 - - 26 14 - - SO 1012,2 10 0 0,0
25.02.2017 15:00:00 10,1 7,2 - - 18 10 46 25 SO 1012,8 18 0 0,0
25.02.2017 14:00:00 10,2 7,1 - - 28 15 - - SO 1013,3 10 0 0,0
25.02.2017 13:00:00 10,3 7,1 - - 26 14 - - SO 1013,7 10 0 0,0
25.02.2017 12:00:00 10,3 7,0 - - 24 13 - - SO 1014,5 19 0 0,0
25.02.2017 11:00:00 10,1 6,7 - - 26 14 - - SO 1015,0 10 0 0,0
25.02.2017 10:00:00 9,9 7,2 - - 24 13 48 26 SO 1015,0 10 0 0,0
25.02.2017 09:00:00 9,6 6,6 8,0 8,0 24 13 - - SO 1014,7 10 0 0,0
25.02.2017 08:00:00 9,1 6,4 - - 22 12 - - SO 1015,3 10 0 0,0
25.02.2017 07:00:00 8,5 7,0 - - 18 10 - - SO 1015,6 10 0 0,0
25.02.2017 06:00:00 8,6 6,4 - - 21 11 - - SO 1016,3 28 0 0,0
25.02.2017 05:00:00 8,4 7,0 - - 18 10 - - SO 1016,5 7 0 0,0
25.02.2017 04:00:00 8,8 6,0 - - 16 9 - - SO 1016,8 27 0 0,0
25.02.2017 03:00:00 8,6 5,8 - - 18 10 - - SO 1017,5 25 0 0,0
25.02.2017 02:00:00 8,5 6,2 - - 15 8 - - SO 1018,0 24 0 0,0
25.02.2017 01:00:00 8,3 6,2 - - 13 7 - - SO 1018,8 22 0 0,0
25.02.2017 00:00:00 7,4 5,6 - - 9 5 - - SO 1019,1 10 - 0,0
24.02.2017 23:00:00 6,7 5,1 - - 9 5 - - SSO 1019,4 10 0 0,0
24.02.2017 22:00:00 6,5 3,7 - - 8 4 - - S 1019,6 10 0 0,0
24.02.2017 21:00:00 5,5 1,8 - - 8 4 - - S 1019,9 10 0 0,0
24.02.2017 20:00:00 6,1 2,9 - - 8 4 - - OSO 1020,1 10 0 0,0
24.02.2017 19:00:00 3,5 -0,9 - - 4 2 - - S 1020,2 35 0 0,0
24.02.2017 18:00:00 6,3 -0,5 - - 4 2 - - O 1019,9 10 18 0,0
24.02.2017 17:00:00 8,3 -0,4 - - 13 7 - - ONO 1019,5 10 42 0,0
24.02.2017 16:00:00 9,6 0,2 - - 21 11 - - ONO 1019,1 10 54 0,0
24.02.2017 15:00:00 9,4 1,4 - - 15 8 - - N 1018,9 10 36 0,0
24.02.2017 14:00:00 10,0 0,8 - - 21 11 - - NO 1018,8 10 42 0,0
24.02.2017 13:00:00 9,2 0,1 - - 22 12 - - NO 1019,2 10 36 0,0
24.02.2017 12:00:00 8,9 0,8 - - 24 13 - - NO 1019,2 10 60 0,0
24.02.2017 11:00:00 8,1 1,8 - - 24 13 - - NO 1018,6 30 60 0,0
24.02.2017 10:00:00 6,9 2,2 - - 22 12 - - NO 1018,3 10 60 0,0
24.02.2017 09:00:00 5,5 2,1 8,5 8,0 18 10 - - ONO 1017,5 10 24 0,0
24.02.2017 08:00:00 3,9 1,5 - - 18 10 - - ONO 1016,8 29 0 0,0
24.02.2017 07:00:00 3,2 0,8 - - 16 9 - - ONO 1016,2 10 0 0,0
24.02.2017 06:00:00 3,7 0,9 - - 16 9 - - ONO 1015,5 27 0 0,0
24.02.2017 05:00:00 3,6 1,0 - - 16 9 - - ONO 1015,0 26 0 0,0
24.02.2017 04:00:00 2,5 0,5 - - 16 9 - - O 1013,9 27 0 0,0
24.02.2017 03:00:00 3,2 0,3 - - 15 8 - - ONO 1013,7 29 0 0,0
24.02.2017 02:00:00 3,1 -0,2 - - 11 6 - - O 1013,1 30 0 0,0
24.02.2017 01:00:00 4,7 1,0 - - 21 11 - - ONO 1012,1 22 0 0,0
24.02.2017 00:00:00 5,4 1,5 - - 22 12 - - ONO 1011,3 23 - 0,0
23.02.2017 23:00:00 5,4 1,7 - - 18 10 - - ONO 1010,4 25 0 0,0
23.02.2017 22:00:00 5,8 1,8 - - 24 13 - - ONO 1009,5 10 0 0,0
23.02.2017 21:00:00 5,9 1,9 - - 24 13 - - ONO 1008,4 10 0 0,0
23.02.2017 20:00:00 7,0 2,0 - - 22 12 63 34 ONO 1006,7 10 0 0,0
23.02.2017 19:00:00 7,5 1,4 - - 34 18 63 34 ONO 1005,3 10 0 0,0
23.02.2017 18:00:00 7,9 1,0 - - 39 21 76 41 ONO 1004,2 25 0 0,0
23.02.2017 17:00:00 8,8 0,8 - - 37 20 76 41 ONO 1002,9 10 18 0,0
23.02.2017 16:00:00 9,8 0,9 - - 46 25 78 42 ONO 1001,9 29 36 0,0
23.02.2017 15:00:00 10,4 2,1 - - 44 24 74 40 ONO 1000,7 10 0 0,0
23.02.2017 14:00:00 10,2 1,9 - - 55 30 83 45 ONO 999,9 10 6 0,0
23.02.2017 13:00:00 10,0 2,5 - - 50 27 80 43 ONO 999,5 21 6 0,0
23.02.2017 12:00:00 10,4 2,7 - - 48 26 87 47 O 999,0 10 18 0,0
23.02.2017 11:00:00 11,0 3,7 - - 54 29 78 42 O 998,2 10 60 0,0
23.02.2017 10:00:00 10,1 4,5 - - 48 26 70 38 O 997,6 10 24 0,0
23.02.2017 09:00:00 10,0 4,9 9,2 7,7 41 22 68 37 O 997,1 10 30 0,0
23.02.2017 08:00:00 10,0 7,4 - - 48 26 74 40 O 996,4 10 0 0,6
23.02.2017 07:00:00 10,7 8,7 - - 39 21 72 39 OSO 996,6 16 0 0,0
23.02.2017 06:00:00 10,8 8,7 - - 44 24 70 38 OSO 998,4 20 0 0,2
23.02.2017 05:00:00 10,2 9,3 - - 37 20 61 33 OSO 999,9 5 0 0,0
23.02.2017 04:00:00 10,4 8,9 - - 39 21 57 31 OSO 1001,8 20 0 0,0
23.02.2017 03:00:00 10,3 9,2 - - 34 18 57 31 OSO 1003,1 23 0 0,0
23.02.2017 02:00:00 10,2 9,5 - - 28 15 54 29 SO 1004,8 15 0 0,0
23.02.2017 01:00:00 10,1 9,5 - - 26 14 48 26 OSO 1006,4 8 0 0,0
23.02.2017 00:00:00 10,4 9,4 - - 31 17 55 30 OSO 1007,3 10 - 0,0
22.02.2017 23:00:00 10,4 9,4 - - 34 18 50 27 OSO 1007,9 10 0 0,0
22.02.2017 22:00:00 10,4 9,4 - - 29 16 46 25 OSO 1008,6 10 0 0,0
22.02.2017 21:00:00 10,4 9,4 - - 28 15 52 28 OSO 1008,9 10 0 0,0
22.02.2017 20:00:00 10,4 9,7 - - 22 12 - - OSO 1009,4 7 0 0,0
22.02.2017 19:00:00 10,6 9,9 - - 28 15 - - OSO 1009,7 7 0 0,0
22.02.2017 18:00:00 10,8 9,9 - - 26 14 - - OSO 1009,8 10 0 0,0
22.02.2017 17:00:00 11,0 10,1 - - 26 14 - - OSO 1010,0 2,5 0 0,0
22.02.2017 16:00:00 11,4 10,1 - - 29 16 - - OSO 1010,3 10 0 0,0
22.02.2017 15:00:00 11,7 10,3 - - 26 14 48 26 OSO 1010,5 10 0 0,0
22.02.2017 14:00:00 11,6 9,9 - - 31 17 50 27 OSO 1010,6 10 0 0,0
22.02.2017 13:00:00 11,6 9,9 - - 26 14 46 25 OSO 1011,1 10 0 0,0
22.02.2017 12:00:00 12,7 10,3 - - 26 14 - - OSO 1011,2 10 0 0,0
22.02.2017 11:00:00 12,4 9,7 - - 26 14 - - O 1011,7 10 0 0,0
22.02.2017 10:00:00 12,2 10,1 - - 26 14 - - O 1011,7 10 6 0,0
22.02.2017 09:00:00 11,2 9,3 9,0 7,5 26 14 - - OSO 1011,9 25 0 0,0
22.02.2017 08:00:00 10,8 9,2 - - 29 16 - - OSO 1012,0 10 0 0,0
22.02.2017 07:00:00 10,6 9,0 - - 29 16 - - OSO 1012,1 20 0 0,0
22.02.2017 06:00:00 10,7 8,8 - - 26 14 - - OSO 1012,0 23 0 0,0
22.02.2017 05:00:00 10,8 8,5 - - 22 12 - - OSO 1012,5 23 0 0,0
22.02.2017 04:00:00 10,8 8,0 - - 18 10 - - O 1012,8 21 0 0,0
22.02.2017 03:00:00 11,0 8,3 - - 16 9 - - OSO 1013,1 20 0 0,0
22.02.2017 02:00:00 10,7 8,7 - - 24 13 - - OSO 1013,6 16 0 0,0
22.02.2017 01:00:00 10,6 8,8 - - 22 12 - - OSO 1013,8 16 0 0,0
22.02.2017 00:00:00 10,6 9,0 - - 31 17 - - OSO 1014,0 15 - 0,0
21.02.2017 23:00:00 10,5 9,2 - - 28 15 - - OSO 1014,5 10 0 0,0
21.02.2017 22:00:00 10,3 9,5 - - 26 14 - - OSO 1015,0 10 0 0,0

tt = Temperatura
td = dewpoint
tt -20cm = Temperatura -20cm
tt -100cm = Temperatura -100cm
ff = velocità del vento
fx = gusts
dd = direzione del vento
ppp = reduced air pressure
vv = visibility
sd = ore di luce
rr = precipitazioni

Stazioni seguenti

WeatherPro
AMSI
MeteoEarth